Lid_Strength_Index
11 11 11 12 12 11 12 11 14 12 11 8 7 6 5 5 4 6 6 6 6 6 6 7 8 9 9 9 10 10 10 8 8 8 7 7 6 6 6 6 7 7 8 8
13 10 11 13 12 11 10 9 9 9 10 6 5 5 5 5 5 7 6 6 7 7 7 7 9 9 9 10 10 10 10 9 8 8 7 7 6 6 6 7 8 8 9 9
16 12 12 15 13 12 10 9 9 12 8 6 6 6 6 6 6 7 6 7 8 7 7 8 9 9 10 10 10 10 10 8 8 8 8 7 6 6 7 8 8 9 9 9
15 13 19 13 10 9 10 9 8 8 7 6 6 5 5 5 6 6 6 7 8 7 8 7 8 9 9 10 11 10 9 9 8 8 8 7 7 7 7 7 8 8 8 7
16 17 14 12 10 11 12 11 8 8 6 6 5 5 6 4 4 5 6 7 8 7 7 7 7 9 10 11 11 10 9 9 8 8 8 7 7 7 7 7 7 6 6 6
15 17 19 13 8 7 7 14 7 7 7 6 5 9 7 4 4 5 6 7 7 7 7 7 8 8 10 12 11 10 9 9 8 8 8 8 7 7 7 7 6 6 5 5
15 15 14 9 7 6 15 13 7 6 6 6 7 5 4 4 4 5 6 6 6 7 7 7 8 9 10 12 11 10 8 9 8 8 7 7 7 7 7 6 6 7 7 7
14 16 17 7 7 12 8 6 6 5 5 5 4 4 4 4 5 5 6 6 6 7 7 7 8 9 10 12 10 9 9 9 9 8 8 7 7 7 6 6 7 8 8 8
12 13 8 7 6 5 4 6 5 5 4 4 4 4 4 5 5 5 6 6 6 7 7 7 8 8 10 11 10 9 9 10 9 8 8 8 8 8 8 8 9 9 9 9
11 10 9 6 5 4 4 4 4 3 3 3 4 3 4 4 5 5 6 6 6 7 7 8 8 8 8 10 10 10 10 10 9 9 9 8 9 8 9 9 9 10 10 10
10 8 6 6 5 4 4 3 3 3 3 3 3 3 4 4 5 5 6 6 6 7 7 8 8 8 7 9 10 11 10 10 10 10 10 9 9 9 9 9 9 9 9 9
12 8 8 6 4 4 4 4 3 3 3 3 2 3 3 4 5 5 6 6 6 6 7 7 8 8 7 8 10 11 11 11 11 11 11 10 10 9 9 9 9 9 9 9
10 7 6 4 4 3 3 3 3 3 2 3 2 3 3 4 4 6 5 6 6 6 6 7 7 7 7 8 9 11 12 12 13 12 11 11 11 11 11 9 9 9 9 9
6 5 6 4 5 3 2 2 2 2 2 2 3 3 3 3 4 5 5 5 5 6 6 6 7 7 6 6 8 10 12 13 12 13 13 12 12 12 11 11 11 10 10 10
5 4 4 3 3 3 2 2 3 3 3 3 3 3 3 3 4 4 4 4 5 5 6 6 7 7 6 5 6 7 10 12 12 12 14 14 14 13 12 12 12 12 11 10
5 4 4 4 4 3 3 3 3 3 3 3 3 3 3 3 2 3 4 4 5 6 6 6 7 6 6 5 6 6 7 12 13 13 13 14 14 14 14 12 13 13 13 12
6 6 5 5 5 4 3 3 3 3 3 3 3 2 2 2 3 3 4 4 4 5 5 6 6 5 6 6 5 6 6 7 11 11 13 13 14 15 14 14 13 13 13 13
4 4 4 4 5 4 4 3 3 3 3 2 2 3 4 4 3 3 3 3 3 4 5 6 7 7 6 7 6 5 6 7 7 8 10 13 14 14 15 15 14 14 13 12
4 4 4 4 4 4 4 3 3 3 3 2 3 3 4 5 5 3 2 3 5 5 4 5 10 7 5 9 9 5 6 6 7 8 8 10 11 13 13 14 14 14 14 14
4 4 4 5 5 5 5 5 4 4 4 3 3 4 3 9 6 4 2 3 4 5 4 3 5 5 5 6 10 5 5 6 6 7 8 9 10 10 11 13 13 14 15 14
4 4 4 4 5 5 5 5 5 6 6 6 5 6 4 3 4 4 4 4 4 6 6 7 6 7 7 9 7 4 5 6 7 7 8 9 10 10 10 11 12 13 13 13
5 4 3 3 4 4 4 4 5 5 6 8 11 11 7 4 4 3 4 6 5 10 6 5 6 10 10 12 4 3 4 5 6 6 7 8 10 12 11 11 11 12 11 12
5 4 3 3 3 3 3 3 3 4 4 6 6 5 5 4 3 4 5 5 5 8 5 6 10 11 11 6 3 3 3 5 6 6 7 9 9 11 10 10 11 12 12 11
6 5 4 3 3 3 4 3 3 3 3 3 4 4 5 6 5 4 4 7 9 9 6 8 9 11 10 5 5 5 4 4 5 6 6 10 11 11 10 11 10 10 12 12
6 5 4 3 3 4 3 2 2 2 2 2 2 3 3 4 5 5 5 6 10 8 6 9 10 10 7 7 8 8 6 6 6 7 7 8 9 11 11 11 10 11 12 12
6 5 4 4 4 3 3 3 2 2 1 2 1 1 1 2 4 4 5 8 6 9 7 9 7 8 8 7 8 8 8 7 7 6 8 7 7 8 10 10 11 11 11 12
5 8 3 3 3 3 2 2 2 2 2 2 2 1 1 0 1 3 6 6 7 8 9 10 8 8 7 8 8 9 8 8 10 9 8 8 9 11 11 11 11 11 11 11